This demonstration page uses our WeatherBlox Daily Observations layout. Learn more.

Hourly Observations for April 14, 2019

Temp ( °F °C ) Dew Point ( °F °C ) Humidity (%) Winds ( mph kmh ) Pressure ( in mb ) Visibility ( mi km ) Precip ( " mm )
12:15 am 00:15 Clear 63 17 61 16 94 94 SSE 5 7 30 1016 10 16.09344 0 0
12:30 am 00:30 Clear 63 17 61 16 94 94 SSE 6 9 30 1016 10 16.09344 0 0
12:55 am 00:55 Clear 63 17 61 16 94 94 SSE 7 11 30 1016 10 16.09344 0 0
1:15 am 01:15 Clear 61 16 61 16 100 100 SSE 6 9 30 1016 10 16.09344 0 0
1:35 am 01:35 Clear 59 15 59 15 100 100 Calm 30 1016 10 16.09344 0 0
1:55 am 01:55 Clear 59 15 59 15 100 100 Calm 29.97 1015 10 16.09344 0 0
2:15 am 02:15 Clear 57 14 57 14 100 100 Calm 29.97 1015 10 16.09344 0 0
2:35 am 02:35 Partly Cloudy 55 13 55 13 100 100 S 3 6 29.97 1015 10 16.09344 0 0
2:55 am 02:55 Cloudy 57 14 57 14 100 100 SSW 5 7 29.97 1015 10 16.09344 0 0
3:15 am 03:15 Cloudy 55 13 55 13 100 100 Calm 29.97 1015 10 16.09344 0 0
3:35 am 03:35 Cloudy 55 13 55 13 100 100 Calm 29.97 1015 10 16.09344 0 0
3:55 am 03:55 Cloudy 55 13 55 13 100 100 Calm 29.97 1015 7 11.265408 0 0
4:15 am 04:15 Cloudy 55 13 55 13 100 100 Calm 29.94 1014 0.75 1.207008 0 0
4:35 am 04:35 Cloudy 55 13 55 13 100 100 Calm 29.97 1015 0.5 0.804672 0 0
4:55 am 04:55 Cloudy 55 13 55 13 100 100 Calm 29.94 1014 1.25 2.01168 0 0
5:15 am 05:15 Cloudy 55 13 55 13 100 100 Calm 29.94 1014 4 6.437376 0 0
5:35 am 05:35 Mostly Cloudy 55 13 55 13 100 100 Calm 29.94 1014 4 6.437376 0 0
5:55 am 05:55 Mostly Cloudy 55 13 55 13 100 100 Calm 29.94 1014 7 11.265408 0 0
6:15 am 06:15 Mostly Cloudy 55 13 55 13 100 100 Calm 29.94 1014 7 11.265408 0 0
6:35 am 06:35 Mostly Cloudy 54 12 54 12 100 100 WSW 3 6 29.94 1014 5 8.04672 0 0
6:55 am 06:55 Cloudy 55 13 55 13 100 100 Calm 29.94 1014 7 11.265408 0 0
7:15 am 07:15 Cloudy 55 13 55 13 100 100 SSE 3 6 29.94 1014 7 11.265408 0 0
7:35 am 07:35 Cloudy 57 14 57 14 100 100 S 5 7 29.94 1014 7 11.265408 0 0
7:55 am 07:55 Cloudy 59 15 59 15 100 100 SSE 8 13 29.91 1013 3 4.828032 0 0
8:15 am 08:15 Cloudy 59 15 59 15 100 100 SSE 8 13 29.91 1013 3 4.828032 0 0
8:35 am 08:35 Cloudy 59 15 59 15 100 100 SSE 9 15 29.91 1013 2.5 4.02336 0 0
8:55 am 08:55 Cloudy 59 15 59 15 100 100 SSE 9 15 29.88 1012 4 6.437376 0 0
9:15 am 09:15 Cloudy 61 16 61 16 100 100 S 10 17 29.88 1012 10 16.09344 0 0
9:35 am 09:35 Cloudy 61 16 61 16 100 100 S 9 15 29.88 1012 10 16.09344 0 0
9:55 am 09:55 Cloudy 61 16 61 16 100 100 S 7 11 29.88 1012 10 16.09344 0 0
10:15 am 10:15 Cloudy 61 16 61 16 100 100 S 8 13 29.85 1011 10 16.09344 0 0
10:35 am 10:35 Cloudy 63 17 63 17 100 100 S 12 19 29.85 1011 10 16.09344 0 0
10:55 am 10:55 Cloudy 63 17 63 17 100 100 S 12 19 29.83 1010 5 8.04672 0 0
11:15 am 11:15 Cloudy 63 17 63 17 100 100 S 12 19 29.83 1010 10 16.09344 0 0
11:35 am 11:35 Cloudy 64 18 63 17 94 94 S 10 17 29.83 1010 10 16.09344 0 0
11:55 am 11:55 Cloudy 64 18 63 17 94 94 S 12 19 29.83 1010 10 16.09344 0 0
12:15 pm 12:15 Cloudy 64 18 64 18 100 100 S 10 17 29.83 1010 10 16.09344 0 0
12:35 pm 12:35 Cloudy 64 18 64 18 100 100 SSW 12 19 29.83 1010 10 16.09344 0 0
12:55 pm 12:55 Cloudy 66 19 64 18 94 94 S 12 19 29.8 1009 10 16.09344 0 0
1:15 pm 13:15 Cloudy 68 20 64 18 88 88 S 10 17 29.8 1009 10 16.09344 0 0
1:35 pm 13:35 Cloudy 70 21 64 18 83 83 S 13 20 29.8 1009 10 16.09344 0 0
1:55 pm 13:55 Cloudy 70 21 64 18 83 83 S 12 19 29.77 1008 10 16.09344 0 0
2:15 pm 14:15 Mostly Cloudy 70 21 64 18 83 83 SSW 9 15 29.77 1008 10 16.09344 0 0
2:35 pm 14:35 Mostly Cloudy 70 21 64 18 83 83 SSW 8 13 29.77 1008 10 16.09344 0 0
2:55 pm 14:55 Cloudy 72 22 64 18 78 78 S 9 15 29.71 1006 10 16.09344 0 0
3:15 pm 15:15 Mostly Cloudy 72 22 64 18 78 78 S 13 20 29.71 1006 10 16.09344 0 0
3:35 pm 15:35 Mostly Cloudy 72 22 64 18 78 78 S 17 28 29.71 1006 10 16.09344 0 0
3:55 pm 15:55 Cloudy 73 23 64 18 74 74 S 13 20 29.68 1005 10 16.09344 0 0
4:15 pm 16:15 Mostly Cloudy 73 23 64 18 74 74 S 10 17 29.65 1004 10 16.09344 0 0
4:35 pm 16:35 Cloudy 73 23 64 18 74 74 S 13 20 29.65 1004 10 16.09344 0 0
4:55 pm 16:55 Cloudy 73 23 64 18 74 74 S 14 22 29.62 1003 10 16.09344 0 0
5:15 pm 17:15 Cloudy 73 23 64 18 74 74 S 15 24 29.62 1003 10 16.09344 0 0
5:35 pm 17:35 Cloudy 73 23 64 18 74 74 SE 12 19 29.62 1003 10 16.09344 0 0
5:55 pm 17:55 Mostly Cloudy 73 23 64 18 74 74 SSE 21 33 29.59 1002 10 16.09344 0 0
6:15 pm 18:15 Cloudy 73 23 64 18 74 74 S 8 13 29.59 1002 10 16.09344 0 0
6:35 pm 18:35 Cloudy 72 22 66 19 83 83 WSW 9 15 29.59 1002 10 16.09344 0 0
6:55 pm 18:55 Cloudy 73 23 66 19 78 78 S 13 20 29.59 1002 10 16.09344 0 0
7:15 pm 19:15 Cloudy 72 22 66 19 83 83 SSE 8 13 29.56 1001 10 16.09344 0 0
7:35 pm 19:35 Cloudy 70 21 68 20 94 94 SE 13 20 29.53 1000 5 8.04672 0 0
7:55 pm 19:55 Cloudy 68 20 68 20 100 100 S 8 13 29.53 1000 4 6.437376 0 0
8:15 pm 20:15 Cloudy 68 20 68 20 100 100 S 3 6 29.53 1000 10 16.09344 0 0
8:35 pm 20:35 Cloudy 66 19 66 19 100 100 W 13 20 29.53 1000 10 16.09344 0 0
8:55 pm 20:55 Mostly Cloudy 68 20 66 19 94 94 S 10 17 29.5 999 10 16.09344 0 0
9:15 pm 21:15 Mostly Cloudy 70 21 66 19 88 88 S 13 20 29.5 999 10 16.09344 0 0
9:35 pm 21:35 Cloudy 70 21 66 19 88 88 S 13 20 29.5 999 10 16.09344 0 0
9:55 pm 21:55 Cloudy 72 22 66 19 83 83 S 16 26 29.47 998 10 16.09344 0 0
10:15 pm 22:15 Cloudy 72 22 66 19 83 83 S 16 26 29.47 998 10 16.09344 0 0
10:35 pm 22:35 Cloudy 72 22 68 20 88 88 S 15 24 29.44 997 10 16.09344 0 0
10:55 pm 22:55 Cloudy 72 22 68 20 88 88 S 16 26 29.44 997 10 16.09344 0 0
11:15 pm 23:15 Cloudy 70 21 68 20 94 94 SSW 14 22 29.44 997 10 16.09344 0 0
11:35 pm 23:35 Mostly Cloudy 72 22 68 20 88 88 SSW 16 26 29.44 997 10 16.09344 0 0
11:55 pm 23:55 Mostly Cloudy 72 22 68 20 88 88 S 12 19 29.41 996 10 16.09344 0 0

Powered by AerisWeather